User: anonymous   Login
Location: Unspecified
(31.2130°N, 0.0000°E)
Time: 17:59:11
(UTC+00:00)
Language:

Iridium 44 - Orbit

View from above orbital plane
View from above orbital plane
View from above satellite
View from above satellite

Ground track
Ground track

The orbit is defined by the following mean orbital elements,

1 25078U          26088.09606314 +.00000000 +00000-0 +10997-3 0 00007
2 25078  86.3898 101.0462 0003113 127.0056 233.1428 14.40523908    08
Epoch (UTC): 29 March 2026 02:18:19
Eccentricity: 0.0003113
inclination: 86.3898°
perigee height: 755 km
apogee height: 759 km
right ascension of ascending node: 101.0462°
argument of perigee: 127.0056°
revolutions per day: 14.40523908
mean anomaly at epoch: 233.1428°

The dashed part of the orbit path shows where the satellite is in the earth's shadow,  

DLR